User: anonymous
Location: Mentone
(34.5413°N, 85.5351°W)
Time: 20:18:22
(UTC-05:00)
Language:

ERBS - Orbit

View from above orbital plane
View from above orbital plane
View from above satellite
View from above satellite

Ground track
Ground track

The orbit data is extracted from the following two-line orbital elements,

1 15354U 84108B   14211.47060620  .00003250  00000-0  12613-3 0  5412
2 15354 057.0152 311.6273 0011303 286.8256 073.1553 15.28896666636240
Epoch (UTC): 30 July 2014 11:17:40
Eccentricity: 0.0011303
inclination: 57.0152°
perigee height: 471 km
apogee height: 487 km
right ascension of ascending node: 311.6273°
argument of perigee: 286.8256°
revolutions per day: 15.28896666
mean anomaly at epoch: 73.1553°
orbit number at epoch: 63624

The dashed part of the orbit path shows where the satellite is in the earth's shadow,  

DLR